Regional Weather Roundup
Issued by NWS

Home | Current Version | Previous Version | Graphics & Text | Print | Product List | Glossary On
Versions: 1 2 3 4 5 6 7 8 9 10 11 12 13 14 15 16 17 18 19 20 21 22 23 24 25 26 27 28 29 30 31 32 33 34 35 36 37 38 39 40 41 42 43 44 45 46 47 48 49 50
000
ASUS44 KMEG 282000
RWRTN
TENNESSEE HOURLY STATE WEATHER ROUNDUP
NATIONAL WEATHER SERVICE MEMPHIS TN
300 PM CDT TUE MAR 28 2017

TNZ002-004-019-021-049-052-054-088>092-282100-
WEST TENNESSEE

CITY           SKY/WX    TMP DP  RH WIND       PRES   REMARKS
MEMPHIS INTL   MOSUNNY   78  58  49 NE7       29.97F
NWS MEMPHIS      N/A     77 N/A N/A MISG        N/A
JACKSON        MOSUNNY   72  57  59 N7        30.00F
DYERSBURG      MOSUNNY   70  55  59 N7        30.01F
PARIS          CLOUDY    63  52  67 NE5       30.03F
$$

TNZ008-025-027-028-033-062-065-066-282100-
NORTH MIDDLE TENNESSEE

CITY           SKY/WX    TMP DP  RH WIND       PRES   REMARKS
NASHVILLE      PTSUNNY   69  52  54 MISG      30.01F
CLARKSVILLE    CLOUDY    63  54  72 N12       30.03F
SMYRNA         PTSUNNY   69  54  58 N5        30.01F
CROSSVILLE     CLOUDY    62  50  64 W9        30.03S
$$

TNZ061-075-076-078-094-096-097-282100-
SOUTH MIDDLE TENNESSEE

CITY           SKY/WX    TMP DP  RH WIND       PRES   REMARKS
TULLAHOMA      MOSUNNY   66  54  63 VRB6        N/A
WINCHESTER     MOSUNNY   70  55  60 VRB3      30.00F
MCMINNVILLE    CLOUDY    64  54  68 VRB5      30.02F
COLUMBIA       MOSUNNY   72  57  60 CALM      29.98F
SHELBYVILLE    PTSUNNY   70  55  60 W5        30.02F
$$

TNZ017-018-042-046-047-282100-
NORTHEAST TENNESSEE

CITY           SKY/WX    TMP DP  RH WIND       PRES   REMARKS
TRI CITIES     CLOUDY    68  51  54 W12       29.97F
$$

TNZ012-013-036-069-073-074-282100-
CENTRAL EAST TENNESSEE

CITY           SKY/WX    TMP DP  RH WIND       PRES   REMARKS
KNOXVILLE      CLOUDY    69  55  60 CALM      29.96F
OAK RIDGE      CLOUDY    74  49  41 W8        29.98F
GATLINBURG     PTSUNNY   73  54  49 SW10      29.96F
$$

TNZ083-085-099-282100-
SOUTHEAST TENNESSEE

CITY           SKY/WX    TMP DP  RH WIND       PRES   REMARKS
CHATTANOOGA    MOSUNNY   77  54  44 W6        29.97F
$$

SKY/WX REPORTED AS FAIR MEANS FEW OR NO CLOUDS BELOW
12 THOUSAND FEET.




USA.gov is the U.S. government's official web portal to all federal, state and local government web resources and services.